Regional Weather Roundup
Issued by NWS Mobile, AL

Current Version | Previous Version | Text Only | Print | Product List | Glossary On
Versions: 1 2 3 4 5 6 7 8 9 10 11 12 13 14 15 16 17 18 19 20 21 22 23 24 25 26 27 28 29 30 31 32 33 34 35 36 37 38 39 40 41 42 43 44 45 46 47 48 49 50
000
ASUS44 KMOB 150012
RWRMOB
REGIONAL WEATHER ROUNDUP
NATIONAL WEATHER SERVICE MOBILE AL
600 PM CST SUN FEB 14 2016

NOTE: "FAIR" INDICATES FEW OR NO CLOUDS BELOW 12,000 FEET WITH NO
      SIGNIFICANT WEATHER AND/OR OBSTRUCTIONS TO VISIBILITY.

  * THESE STATIONS ARE PART OF THE UNIVERSITY OF SOUTH ALABAMA
    MESONET AND ARE NOT UNDER NWS OR FAA QUALITY CONTROL.

ALZ061>064-150100-
COASTAL ALABAMA

CITY           SKY/WX    TMP DP  RH WIND       PRES   REMARKS
MOBILE REG APT CLOUDY    57  50  77 E14       30.14F
6HR MIN TEMP:  57; 6HR MAX TEMP:  63;

BROOKLEY FIELD CLOUDY    56  50  80 E10       30.16F
6HR MIN TEMP:  56; 6HR MAX TEMP:  61; 6HR PCP: TRACE;

USA CAMPUS*    NOT AVBL
DOG RIVER*     NOT AVBL


CITY           SKY/WX    TMP DP  RH WIND       PRES   REMARKS
MOUNT VERNON*  NOT AVBL
SARALAND*      NOT AVBL
BAY MINETTE*   NOT AVBL
LOXLEY*        NOT AVBL
ROBERTSDALE*   NOT AVBL
FAIRHOPE*      NOT AVBL
ELBERTA*       NOT AVBL
FOLEY*         NOT AVBL
GRAND BAY*     NOT AVBL
DAUPHIN ISLND* NOT AVBL
BON SCOUR NWR* NOT AVBL
GULF SHORES    CLOUDY    58  51  77 E12       30.17S

$$

ALZ051>060-150100-
INTERIOR SOUTHWEST AND SOUTH CENTRAL ALABAMA

CITY           SKY/WX    TMP DP  RH WIND       PRES   REMARKS
GREENVILLE     CLOUDY    55  22  27 S6        30.15F
6HR MIN TEMP:  55; 6HR MAX TEMP:  62;

EVERGREEN      CLOUDY    54  33  45 S8        30.18S
6HR MIN TEMP:  54; 6HR MAX TEMP:  63; 6HR PCP: TRACE;

CASTLEBERRY*   NOT AVBL
ATMORE*        NOT AVBL
DIXIE*         NOT AVBL
ANDALUSIA/OPP  CLEAR     55  28  35 CALM      30.18
6HR MIN TEMP:  55; 6HR MAX TEMP:  66;

ANDALUSIA*     NOT AVBL
FLORALA APT    CLEAR     49  35  58 SW7       30.20R
6HR MIN TEMP:  49; 6HR MAX TEMP:  61;

FLORALA*       NOT AVBL

$$

FLZ001>006-150100-
WESTERN FLORIDA PANHANDLE

CITY           SKY/WX    TMP DP  RH WIND       PRES   REMARKS
PENSACOLA      CLOUDY    56  45  66 E8        30.19S
6HR MIN TEMP:  55; 6HR MAX TEMP:  59;

NAS PENSACOLA  MOCLDY    58  46  64 SE12      30.18S
6HR MIN TEMP:  57; 6HR MAX TEMP:  61;

MILTON         CLOUDY    50  40  68 S5        30.20S
6HR MIN TEMP:  50; 6HR MAX TEMP:  61;

WHTNG S FIELD  CLOUDY    53  40  61 CALM      30.20S
6HR MIN TEMP:  53; 6HR MAX TEMP:  63;



CITY           SKY/WX    TMP DP  RH WIND       PRES   REMARKS
WALNUT HILL*   NOT AVBL
JAY*           NOT AVBL
DUKE FIELD     PTCLDY    50  33  50 SW1       30.19R
CRESTVIEW      CLEAR     51  30  44 S5        30.21R
6HR MIN TEMP:  51; 6HR MAX TEMP:  64;

VALPARAISO     MOCLDY    54  41  60 S6        30.19R
6HR MIN TEMP:  54; 6HR MAX TEMP:  58;

DESTIN         PTCLDY    58  42  55 VRB6      30.20R
6HR MIN TEMP:  56; 6HR MAX TEMP:  60;


$$

MSZ076-079-150100-
INTERIOR SOUTHEAST MISSISSIPPI

CITY           SKY/WX    TMP DP  RH WIND       PRES   REMARKS
LEAKESVILLE*   NOT AVBL
AGRICOLA*      NOT AVBL

$$

MARINE OBSERVATIONS

STATION/POSITION TIME  TEMP    WIND        PRES    WAVE
                       AIR SEA DIR/SP/G            HT/PER
                 (UTC) (F)     (DEG/KT/KT) (MB)    (FT/S)
PASCAGOULA       2300   61                 1019.9S
PETIT BOIS ISLND 2300   67                 1020.8R
GRAND BAY        2245   58     110/  9     1021.0F
KATRINA CUT      2300   60     130/ 18       N/A
CEDAR POINT      2300   58     120/ 10     1020.3S
E DAUPHIN ISLAND 0000   61     110/ 21/ 23 1019.8F
MIDDLE BAY LIGHT 2300          110/ 14     1020.0R
USCG MOBILE BAY  2300   57 53              1021.9R
STATE DOCKS      2300   58 53              1021.2R
MEAHER PARK      2300   58     110/ 10     1021.3R
WEEKS BAY        2200   60                   N/A
FORT MORGAN      2300   61                 1020.3S
12 S ORANGE BCH  2350   62 64  120/ 16/ 19 1020.9R   5/ 6
PENSACOLA BAY    2300   60 52              1022.6R

$$

SELECTED LOCATIONS ACROSS THE REGION

CITY           SKY/WX    TMP DP  RH WIND       PRES   REMARKS
NEW ORLEANS    CLOUDY    66  52  60 SE12      30.06F
GULFPORT       CLOUDY    61  53  75 E14       30.09F
PASCAGOULA AP  CLOUDY    60  52  74 E8        30.12F HAZE
PASCAGOULA*    NOT AVBL
HATTIESBURG    CLOUDY    60  48  64 SE14      30.09F
LAUREL         CLOUDY    61  45  55 S12       30.09S
MERIDIAN       CLOUDY    59  41  51 S15       30.06F
JACKSON        CLOUDY    63  44  50 S9        30.02F
MONTGOMERY     CLOUDY    55  23  28 S7        30.16R
TROY           CLEAR     55  23  28 S7        30.18S
KINSTON*       NOT AVBL
GENEVA*        NOT AVBL
ASHFORD*       NOT AVBL
DOTHAN         CLEAR     51  25  36 CALM      30.23R
PANAMA CITY    CLEAR     54  40  59 S3        30.19R

$$




USA.gov is the U.S. government's official web portal to all federal, state and local government web resources and services.